TRANSIT 18 DEB, 35416

Orbit data source: Space-Track

TRANSIT 18 DEB, 35416 is space debris in LEO originally from a launch on Sat, 02 Mar 1968 UTC launched from the Air Force Western Test Range (AFWTR). Debris objects in space refer to the collection of defunct objects orbiting the Earth. Examples of debris include non-operational satellites, rocket bodies, and fragments generated from explosions, collisions, or faulty payload assembly.

Loading next visibility...
Identifier
35416, 1968-012F
Orbit
LEO
Country
Flag of USUS
Related business
Manufacturer
Unknown
Mission
Spacecraft
Bus & Motor
Unknown
Mass
Unknown
Launch date (UTC)
1968-03-02 (58 years ago)
Launch vehicle
Unknown
Launch site
Air Force Western Test Range (AFWTR)
Object type
Payload
Rocket body
Debris
Shape & HBR
Unknown shape, 0.2 m
Radar Cross Section
Medium (>0.1 m² and <1 m²)

Expand to show TLE details & history
Last TLE update: 10 hours ago

TLE from 10 hours ago
0 TRANSIT 18 DEB
1 35416U 68012F   26033.62248716  .00000858  00000-0  11458-2 0  9998
2 35416  90.0213 273.1154 0065052 284.1951 107.9198 13.58817664836266
Epoch: 2026-02-02T14:56Z
TLE epoch observation values (Epoch: 2026-02-02T14:56:22.890Z)
Latitude
32.88072°
Longitude
-83.8088°
Altitude
1,059.451 km
Speed
7.318 km/s
True Right ascension
18h 12m 24s
True Declination
32° 43' 50"
Sunlit
Object was in daylight at epoch
Visualization orbit readout
Latitude
Unknown
Longitude
Unknown
Altitude
Unknown
Speed
Unknown
Apparent Right ascension
Unknown
Apparent Declination
Unknown
Sunlit
N/A
Visualization observer readout
Local Sidereal Time
02:58:10
Azimuth
Unknown
Elevation
Unknown
Doppler factor
Unknown
Orbital elements
Apogee altitude
1,085.266 km
Perigee altitude
988.792 km
Semi-major axis
7,415.166 km
Eccentricity
0.00651
Inclination
90.0213°
RAAN
273.1154°
Arg. of periapsis
284.1951°
True anomaly
108.62729°
Mean anomaly
107.9198°
Eccentric anomaly
108.27372°
Mean motion
3.39908 °/min
Orbital period
105.91 mins
BSTAR
0.0011458
Loading maneuver chart data...
Computing Atmospheric mass density...
Loading historical data...
Loading historical data...
Loading historical data...
Loading historical data...
Loading historical data...
Loading historical data...
Loading historical data...

Documentation

Showing up to 5 results
|